GW5292 Weather Reports


time (UTC)temp
C
wind
direction
speed
KPH
gust
KPH
rain 1hr
cm
rain 24hr
cm
rain mn
cm
humidity
%
barometer
mb
20260507200015 17 360 4.8 11.3 0.00 0.56 0.13 38 1008.0
20260507194530 17 85 1.6 6.4 0.00 0.56 0.13 37 1008.4
20260507193023 17 174 1.6 4.8 0.00 0.56 0.13 38 1008.5
20260507191508 17 9 1.6 9.7 0.00 0.56 0.13 37 1008.7
20260507190013 17 48 1.6 3.2 0.00 0.56 0.13 1008.9
20260507184521 17 159 1.6 8.0 0.00 0.56 0.13 37 1008.9
20260507183023 17 105 1.6 4.8 0.00 0.56 0.13 38 1009.0
20260507181528 17 270 1.6 4.8 0.00 0.56 0.13 39 1009.2
20260507180015 17 110 1.6 6.4 0.00 0.56 0.13 38 1009.2
20260507174508 17 328 1.6 11.3 0.00 0.56 0.13 36 1009.4
20260507173009 16 231 3.2 8.0 0.00 0.56 0.13 1009.6
20260507171506 16 12 6.4 11.3 0.00 0.56 0.13 38 1010.0
20260507170013 17 239 1.6 6.4 0.00 0.58 0.13 40 1010.3
20260507164522 16 191 1.6 8.0 0.00 0.61 0.13 45 1010.5
20260507163003 16 19 4.8 12.9 0.00 0.66 0.13 42 1010.7
20260507161503 16 9 1.6 9.7 0.00 0.66 0.13 44 1010.7
20260507160007 15 15 1.6 16.1 0.00 0.69 0.13 45 1010.9
20260507154511 15 192 3.2 11.3 0.00 0.71 0.13 45 1011.0
20260507153015 15 221 1.6 9.7 0.00 0.76 0.13 46 1011.4
20260507151504 15 185 1.6 8.0 0.00 0.81 0.13 47 1011.6
20260507150004 14 9 3.2 6.4 0.00 0.91 0.13 49 1011.6
20260507144508 14 338 4.8 8.0 0.00 0.97 0.13 49 1011.9
20260507143020 13 9 1.6 4.8 0.00 1.02 0.13 52 1012.2
20260507141521 13 217 1.6 6.4 0.00 1.07 0.13 61 1012.4
20260507140004 13 9 3.2 12.9 0.00 1.09 0.13 58 1012.4
20260507134507 12 352 1.6 8.0 0.00 1.09 0.13 56 1012.6
20260507133011 12 19 3.2 9.7 0.00 1.12 0.13 59 1012.6
20260507131519 11 202 0.0 11.3 0.00 1.14 0.13 66 1012.4
20260507130027 11 45 0.0 8.0 0.00 1.17 0.13 66 1012.3
20260507124509 11 350 1.6 4.8 0.00 1.17 0.13 67 1012.4
20260507123008 10 20 3.2 11.3 0.00 1.19 0.13 69 1012.4
20260507121516 10 316 3.2 8.0 0.00 1.19 0.13 68 1012.4
20260507120019 10 13 1.6 4.8 0.00 1.19 0.13 73 1012.2
20260507114537 10 277 0.0 3.2 0.00 1.19 0.13 74 1012.2
20260507113023 10 250 0.0 3.2 0.00 1.19 0.13 76 1012.3
20260507111510 9 323 0.0 3.2 0.00 1.19 0.13 80 1012.1
20260507110017 9 195 0.0 3.2 0.00 1.19 0.13 80 1012.0
20260507104532 9 195 0.0 0.0 0.00 1.19 0.13 85 1011.6
20260507103027 9 195 0.0 3.2 0.00 1.19 0.13 83 1011.2
20260507101515 9 195 0.0 3.2 0.00 1.19 0.13 85 1011.1
20260507100017 9 321 0.0 0.0 0.00 1.19 0.13 86 1011.0
20260507094521 9 186 0.0 0.0 0.00 1.19 0.13 89 1010.9
20260507093030 9 186 0.0 0.0 0.00 1.19 0.13 89 1010.8
20260507091531 9 186 0.0 0.0 0.00 1.19 0.13 91 1010.8
20260507090003 9 186 0.0 0.0 0.00 1.19 0.13 91 1010.2
20260507084506 9 186 0.0 0.0 0.00 1.19 0.13 92 1010.2
20260507083004 9 186 0.0 0.0 0.00 1.19 0.13 92 1010.6
20260507081507 9 171 0.0 0.0 0.00 1.19 0.13 92 1010.4
20260507080003 10 171 0.0 0.0 0.00 1.19 0.13 92 1010.6
20260507074504 10 171 0.0 0.0 0.00 1.19 0.13 92 1010.7
20260507073005 10 171 0.0 0.0 0.03 1.19 0.13 93 1010.7
20260507071505 10 171 0.0 0.0 0.03 1.19 0.13 94 1011.0
20260507070011 10 171 0.0 0.0 0.03 1.19 0.13 94 1011.1
20260507064505 10 171 0.0 0.0 0.03 1.19 0.13 94 1011.0
20260507063004 10 171 0.0 0.0 0.03 1.17 0.10 93 1010.9
20260507061504 10 171 0.0 0.0 0.08 1.17 0.10 92 1010.8
20260507060005 10 171 0.0 0.0 0.08 1.17 0.10 92 1010.9
20260507054507 10 171 0.0 0.0 0.10 1.17 0.10 90 1011.1
20260507053007 10 171 0.0 0.0 0.08 1.14 0.08 89 1011.0
20260507051506 11 171 0.0 3.2 0.03 1.09 0.03 88 1010.9
20260507050012 11 171 0.0 3.2 0.03 1.09 0.03 87 1010.9
20260507044508 11 286 0.0 1.6 0.00 1.07 0.00 86 1010.4
20260507043019 11 290 0.0 3.2 0.00 1.07 0.00 85 1010.4
20260507041508 11 342 0.0 3.2 0.00 1.07 0.00 84 1010.2
20260507040008 11 23 0.0 3.2 0.00 1.07 0.00 84 1010.1
20260507034503 11 346 0.0 0.0 0.00 1.07 1.07 85 1010.4
20260507033008 11 346 0.0 3.2 0.00 1.07 1.07 85 1010.7
20260507031517 12 351 0.0 6.4 0.00 1.07 1.07 84 1010.3
20260507030012 12 323 3.2 9.7 0.00 1.07 1.07 85 1010.0
20260507024514 12 5 4.8 9.7 0.00 1.07 1.07 86 1010.0
20260507023008 13 9 3.2 6.4 0.00 1.07 1.07 88 1009.8
20260507021513 13 210 0.0 0.0 0.00 1.07 1.07 89 1010.0
20260507020013 13 210 0.0 3.2 0.00 1.07 1.07 89 1010.1
20260507014512 14 210 0.0 3.2 0.00 1.07 1.07 88 1010.1
20260507013020 14 165 0.0 3.2 0.00 1.07 1.07 88 1009.9
20260507011513 15 306 0.0 3.2 0.00 1.07 1.07 89 1009.5
20260507010015 16 299 0.0 11.3 0.00 1.07 1.07 91 1009.4
20260507004513 16 214 1.6 3.2 0.05 1.07 1.07 94 1009.0
20260507003019 16 215 0.0 3.2 0.18 1.07 1.07 93 1008.3
20260507001544 16 215 1.6 1.6 0.41 1.07 1.07 93 1008.1
20260507000016 16 215 1.6 3.2 0.43 1.07 1.07 92 1007.9
20260506234516 16 207 1.6 6.4 0.38 1.02 1.02 90 1007.9
20260506233019 17 182 1.6 4.8 0.25 0.89 0.89 89 1007.9
20260506231507 18 147 0.0 6.4 0.03 0.66 0.66 85 1007.5
20260506230009 18 209 1.6 8.0 0.00 0.64 0.64 82 1007.0
20260506224509 18 206 3.2 6.4 0.00 0.64 0.64 81 1007.0
20260506223003 19 215 1.6 8.0 0.00 0.64 0.64 81 1007.1
20260506221504 19 203 1.6 8.0 0.00 0.64 0.64 81 1007.1
20260506220008 19 198 3.2 8.0 0.00 0.64 0.64 80 1006.9
20260506214510 19 206 1.6 9.7 0.00 0.64 0.64 81 1006.8
20260506213012 18 209 3.2 8.0 0.00 0.64 0.64 83 1006.7
20260506211504 18 111 0.0 3.2 0.00 0.64 0.64 85 1006.5
20260506210007 18 207 1.6 8.0 0.00 0.64 0.64 85 1006.6
20260506204508 18 196 4.8 8.0 0.00 0.64 0.64 85 1006.5
20260506203011 17 202 3.2 8.0 0.00 0.64 0.64 85 1006.6
20260506201519 17 216 3.2 8.0 0.00 0.64 0.64 86 1006.6